Regional Weather Roundup
Issued by NWS

Home | Current Version | Previous Version | Graphics & Text | Print | Product List | Glossary On
Versions: 1 2 3 4 5 6 7 8 9 10 11 12 13 14 15 16 17 18 19 20 21 22 23 24 25 26 27 28 29 30 31 32 33 34 35 36 37 38 39 40 41 42 43 44 45 46 47 48 49 50
000
ASUS43 KFSD 171210
RWRSD

WEATHER ROUNDUP FOR SOUTH DAKOTA
NATIONAL WEATHER SERVICE SIOUX FALLS SD
600 AM CST FRI NOV 17 2017

NOTE: "FAIR" INDICATES FEW OR NO CLOUDS BELOW 12,000 FEET WITH NO
SIGNIFICANT WEATHER AND/OR OBSTRUCTIONS TO VISIBILITY.


SDZ001>005-009-010-012>017-171300-
NORTHWEST AND NORTH CENTRAL SOUTH DAKOTA

CITY           SKY/WX    TMP DP  RH WIND       PRES   REMARKS
BUFFALO          N/A     37  32  82 CALM      29.57R
FAITH            N/A     35  34  96 W5        29.64F
MOBRIDGE       CLOUDY    39  33  79 NW6       29.61S
$$

SDZ012>016-024>037-041>051-057-063-072>074-171300-
SOUTHWEST AND SOUTH CENTRAL SOUTH DAKOTA

CITY           SKY/WX    TMP DP  RH WIND       PRES   REMARKS
RAPID CTY ARPT LGT RAIN  37  34  89 NW9       29.67R
PIERRE         CLOUDY    36  30  79 NW10      29.64R
CUSTER         LGT RAIN  34  32  92 CALM      29.64R
ELLSWORTH AFB  LGT RAIN  36  36 100 NW7       29.66
PHILIP         CLOUDY    34  28  79 CALM      29.67S
PINE RIDGE     CLOUDY    34  27  75 NE5       29.65F WCI  30
SPEARFISH      CLOUDY    34  34 100 CALM      29.65F
WINNER         FAIR      38  30  73 NW8       29.64R
$$

SDZ004>011-016>023-039-040-171300-
NORTHEAST SOUTH DAKOTA

CITY           SKY/WX    TMP DP  RH WIND       PRES   REMARKS
ABERDEEN       CLOUDY    31  27  85 NW14      29.62R WCI  21
WATERTOWN      CLOUDY    33  29  85 N5        29.58R WCI  29
BROOKINGS      CLOUDY    35  30  82 S9        29.58S WCI  28
SISSETON         N/A     28  26  92 S10       29.59F WCI  19
$$

SDZ017-020-022-023-036>040-048>070-171300-
SOUTHEAST SOUTH DAKOTA

CITY           SKY/WX    TMP DP  RH WIND       PRES   REMARKS
SIOUX FALLS    PTCLDY    42  35  76 S16G24    29.58F
HURON          CLOUDY    36  31  82 NE7       29.57R
CHAMBERLAIN    CLOUDY    42  32  68 N12       29.59S
MITCHELL       CLOUDY    39  35  86 SW6       29.56R
YANKTON        CLOUDY    45  40  82 S12       29.58F
$$

ABBREVIATIONS USED IN REMARKS
   TC - TEMPERATURE IN CELSIUS
  WCI - WIND CHILL INDEX
   HX - HEAT INDEX
  VSB - VISIBILITY





USA.gov is the U.S. government's official web portal to all federal, state and local government web resources and services.